Theta_e
293 293 293 293 294 294 294 295 295 296 297 297 296 295 295 294 295 295 294 293 292 291 290 290 290 290 290 289 289 289 288 291 292 290 291 288 286 284 283 284 284 284 284
290 290 290 290 290 290 291 291 292 292 293 293 292 292 292 291 292 291 290 291 289 288 288 287 287 286 285 286 285 285 285 285 287 285 284 285 284 283 282 282 282 282 283
288 288 287 287 288 287 287 288 289 289 288 289 288 288 288 288 288 288 288 287 287 286 285 284 284 284 283 283 283 282 283 282 283 283 282 283 283 282 280 281 280 281 281
286 285 285 285 285 285 285 286 286 287 286 286 286 285 286 286 286 286 285 284 283 283 283 283 283 283 282 281 281 281 282 282 281 281 280 280 280 280 279 277 278 279 279
284 284 284 284 283 283 283 284 284 285 284 284 283 283 283 284 284 284 283 282 281 281 282 282 282 282 282 282 281 280 281 280 280 279 278 278 277 276 275 277 276 277 279
283 283 283 282 282 282 282 282 282 282 282 282 282 282 281 282 286 284 283 281 281 280 279 279 280 281 282 282 282 282 281 279 278 278 277 276 275 275 276 275 275 274 274
283 283 282 281 281 281 281 281 280 280 281 280 281 281 281 283 285 284 283 281 280 280 279 278 278 279 280 280 281 280 280 280 279 277 276 274 274 275 275 274 274 273 273
283 282 281 281 280 280 279 279 279 279 279 280 280 280 281 282 285 284 282 280 279 279 279 278 278 278 279 278 278 276 276 277 277 277 275 275 276 276 275 274 272 272 272
282 282 282 281 280 279 278 278 278 278 278 278 280 280 280 282 284 283 280 278 277 277 277 277 278 278 280 278 276 275 275 275 277 276 275 275 275 275 275 273 270 269 269
282 282 282 281 280 279 279 277 278 278 278 279 279 279 280 280 283 282 279 278 276 276 276 276 278 278 279 277 275 275 274 273 273 271 271 272 272 273 273 272 271 268 268
281 280 279 280 279 279 278 277 277 277 277 277 277 277 278 279 281 282 280 278 277 276 275 275 277 279 277 277 275 275 274 273 270 269 269 270 270 270 270 270 270 269 268
278 278 277 278 278 278 277 276 276 276 275 275 274 274 275 277 279 281 281 280 279 277 275 275 276 277 276 276 274 275 274 270 268 267 267 267 267 267 268 268 268 269 269
275 274 275 276 277 277 276 275 275 275 274 273 273 272 272 274 278 280 280 279 279 276 275 276 276 276 276 274 274 272 269 268 266 265 265 266 266 266 266 266 267 267 267
274 273 273 274 274 275 276 276 275 274 273 273 272 272 272 273 274 276 277 277 277 276 276 274 273 272 271 269 270 268 268 266 266 265 265 265 265 265 264 265 264 264 263
272 271 273 274 273 273 274 274 274 275 275 274 273 273 271 271 273 275 275 274 274 273 268 268 267 266 266 265 265 265 265 265 264 264 263 262 263 263 263 264 263 262 261
269 269 270 271 270 272 272 272 277 277 278 278 277 275 274 274 276 277 277 276 276 274 264 264 264 265 265 265 264 263 263 262 263 263 262 261 261 261 261 261 261 260 260
268 269 269 270 270 270 270 271 270 274 278 278 278 277 276 276 277 277 278 277 277 273 264 264 264 264 264 264 263 262 261 262 262 261 261 260 260 260 258 259 259 259 259
266 267 269 269 270 269 270 271 271 271 271 273 277 276 277 277 278 279 279 278 273 266 262 262 262 262 262 262 261 261 260 260 260 259 259 258 257 257 257 257 257 257 257
267 269 270 270 270 271 270 271 271 272 271 270 271 275 276 278 279 278 278 269 269 264 261 261 261 260 260 260 260 259 259 258 258 257 256 256 255 255 255 256 256 255 255
266 269 269 269 269 269 269 269 269 269 269 267 269 268 265 270 273 272 272 267 266 265 262 261 259 258 258 258 256 256 255 254 255 255 254 255 255 255 255 254 255 255 255
265 266 267 268 267 268 268 267 267 267 267 266 266 265 267 265 266 266 264 262 263 263 262 261 259 258 256 255 254 253 253 255 254 253 254 254 253 253 254 255 255 254 254
265 265 265 265 266 266 266 266 266 265 265 264 263 264 271 264 263 263 262 262 261 261 261 260 258 257 256 254 254 253 252 252 252 253 253 253 252 253 253 253 253 253 253
264 264 264 264 264 264 264 264 264 264 264 263 263 262 266 265 262 261 261 261 260 259 258 256 256 254 253 253 253 254 253 253 253 253 252 252 251 252 252 252 252 251 251
263 263 263 262 262 262 262 261 262 262 262 262 261 261 261 261 261 261 260 258 257 256 255 254 254 254 253 252 252 252 253 253 252 252 252 252 251 251 251 251 251 251 251
262 261 261 261 261 261 261 261 261 260 260 260 259 259 259 258 257 257 257 256 255 254 254 253 253 253 252 251 251 251 251 255 252 252 251 251 251 250 250 251 251 251 250
260 260 261 261 260 260 260 260 259 259 259 259 258 258 258 257 257 257 256 255 254 254 253 253 253 252 252 252 252 252 252 255 254 253 251 251 250 251 251 250 250 250 250
Wind_Speed
3 3 4 4 4 4 4 5 5 5 6 7 8 8 7 7 6 8 7 7 8 7 6 8 8 6 5 5 4 5 4 2 2 2 3 4 5 8 9 9 8 8 9
3 4 5 4 4 4 4 4 4 6 5 6 7 8 7 7 6 8 8 8 9 8 9 9 9 6 7 6 4 6 5 4 2 2 2 3 3 7 8 7 6 7 8
4 4 4 4 4 4 4 4 5 6 6 6 6 7 7 6 7 6 8 9 9 8 8 8 8 8 8 6 6 5 4 4 3 2 2 2 1 4 7 6 7 9 6
4 4 5 5 5 4 4 4 5 5 6 6 6 7 7 7 8 8 9 10 10 9 9 9 8 8 9 8 6 6 4 4 4 3 2 2 2 3 4 7 7 7 8
4 4 5 5 5 5 6 5 5 5 6 7 8 7 7 7 6 10 10 10 12 11 10 9 9 8 10 7 5 6 5 4 3 3 3 2 3 4 7 7 7 8 7
8 10 7 7 6 7 7 7 6 5 6 7 8 9 9 5 15 15 13 11 12 12 11 10 9 7 10 11 12 11 7 5 5 2 2 3 5 4 5 7 7 7 5
10 8 8 9 8 9 8 8 8 8 7 7 8 8 8 8 17 17 16 9 11 11 11 10 9 6 6 8 11 12 10 11 9 6 6 4 3 5 6 6 7 6 5
12 11 11 12 11 9 9 8 8 7 8 8 8 8 9 8 17 18 16 10 9 9 10 10 10 8 8 8 9 8 7 6 7 5 6 4 3 3 4 4 6 6 7
11 12 12 11 11 11 12 11 9 8 7 7 8 9 9 9 17 18 14 10 10 10 8 8 9 8 12 10 8 8 8 5 7 8 7 6 5 5 6 3 5 7 3
12 12 10 12 13 13 12 12 9 9 9 8 9 8 9 10 18 18 14 8 11 8 9 8 8 8 11 9 7 7 7 5 4 4 3 4 5 5 8 6 4 5 4
6 7 8 11 12 12 11 9 11 10 10 9 9 7 9 9 13 18 17 9 8 9 8 8 6 12 10 11 9 6 6 6 5 3 3 3 4 4 4 5 5 4 3
5 7 9 9 8 9 12 10 10 10 10 9 9 7 5 6 11 16 18 14 13 9 9 7 8 12 12 12 8 10 10 8 4 3 4 4 3 3 4 4 5 4 5
4 5 6 7 9 10 11 11 10 10 9 9 9 8 7 5 6 17 15 15 17 8 7 10 13 13 13 10 10 10 7 4 4 4 3 3 1 2 4 4 3 5 7
4 4 4 7 7 8 8 10 10 10 10 10 10 9 8 7 7 6 7 7 13 10 13 8 9 9 9 8 6 6 4 3 3 3 3 1 1 2 3 3 3 4 5
2 2 4 4 7 8 8 9 9 10 13 12 11 10 12 11 10 13 12 8 7 10 9 5 5 6 6 5 5 4 4 3 3 3 2 1 2 2 3 2 3 3 3
2 2 2 4 3 4 6 4 11 11 18 17 16 12 7 12 21 21 19 18 17 19 4 4 6 6 7 7 6 5 4 4 3 3 2 2 3 2 3 4 3 3 5
4 3 3 3 5 5 5 7 7 8 15 15 17 19 20 18 23 23 21 20 20 17 3 5 6 6 6 6 6 5 4 4 4 3 3 3 3 2 3 4 4 4 5
4 5 5 5 4 3 5 6 6 8 9 7 15 14 18 21 23 23 22 18 12 6 3 5 5 6 6 6 5 4 4 4 5 4 4 3 3 3 3 4 4 4 5
3 4 4 4 5 6 6 7 7 8 8 6 4 12 15 21 23 22 23 5 8 6 5 5 5 5 5 5 5 4 5 5 5 4 3 4 4 3 4 5 5 6 7
4 6 5 4 5 6 6 6 6 7 7 7 8 7 4 4 10 10 8 6 7 6 6 6 5 5 5 5 5 5 5 5 5 5 5 4 4 4 5 5 4 6 6
3 3 6 4 5 6 6 7 7 7 6 7 6 5 12 4 3 5 4 4 5 5 6 6 6 5 5 5 5 5 6 6 6 5 5 4 4 4 5 5 5 6 6
4 4 4 5 4 5 6 5 6 7 7 7 5 7 20 6 5 5 5 6 5 5 4 5 5 6 6 7 7 6 7 7 7 6 6 4 5 6 5 5 5 6 7
5 5 5 4 4 4 4 4 5 6 6 6 6 6 8 9 8 8 8 6 5 5 4 4 4 4 4 6 6 7 8 8 7 6 5 5 6 6 5 6 5 6 6
5 6 6 5 4 5 5 5 3 4 4 4 5 6 7 4 6 7 6 5 4 5 4 5 5 7 6 6 6 6 7 6 5 6 7 6 6 6 6 5 6 8 7
5 5 6 6 6 6 6 6 7 7 6 5 5 5 5 6 6 6 5 5 5 5 6 6 6 8 10 11 10 11 10 12 8 8 6 7 7 8 6 6 7 7 7
6 6 5 5 5 5 6 6 6 6 7 7 7 7 7 7 7 6 6 6 5 5 6 6 7 11 10 9 11 10 10 12 10 11 8 7 7 7 7 9 9 7 8
Wind_Direction
107 109 111 108 107 107 112 122 123 120 130 135 133 130 131 134 135 131 128 127 117 117 105 115 112 116 108 95 81 73 70 60 143 101 65 38 47 25 11 13 13 8 360
120 114 117 121 120 118 122 121 121 119 105 119 123 125 132 134 133 137 135 139 135 131 127 124 123 118 98 91 85 87 84 54 108 162 23 3 25 20 358 4 4 4 350
146 138 134 147 144 141 139 138 130 130 125 120 124 131 136 137 129 122 129 125 122 122 124 121 122 120 109 108 99 95 92 87 69 111 88 17 341 6 352 359 359 355 349
164 167 169 178 172 163 154 151 143 142 138 137 135 134 135 135 130 126 123 119 114 110 109 111 115 120 123 121 115 109 112 108 98 97 88 53 12 346 339 355 351 352 337
179 195 204 186 175 164 160 161 157 157 150 142 135 128 128 134 137 135 133 131 128 120 111 109 106 109 118 118 122 115 120 116 106 100 72 47 30 6 3 342 332 333 327
195 200 191 187 181 184 173 165 158 149 151 150 145 144 141 138 148 145 139 135 136 135 132 123 116 109 116 113 111 105 106 121 107 117 76 58 34 5 346 347 342 350 346
206 202 193 184 193 189 175 164 160 161 160 162 147 143 140 141 153 151 144 138 144 146 144 142 134 128 133 121 113 99 86 85 85 98 99 67 26 3 340 340 347 340 312
207 198 193 190 191 178 171 173 160 156 168 164 152 144 142 154 159 154 143 134 134 140 148 148 141 139 136 137 133 120 116 95 83 76 82 80 48 13 353 352 337 332 305
215 211 203 192 181 177 184 173 163 162 164 160 156 149 150 155 162 157 144 139 139 138 136 139 142 137 129 134 136 132 130 109 91 78 78 75 55 37 37 8 13 3 345
222 220 200 192 189 188 181 173 173 171 164 161 156 159 155 157 168 165 155 151 151 147 145 144 148 144 129 130 138 145 145 133 120 96 84 65 54 45 42 38 23 9 355
220 195 192 195 194 185 171 171 165 166 158 160 155 150 153 162 171 174 172 166 159 157 159 161 156 139 137 133 140 140 133 126 104 112 103 86 63 41 31 28 23 354 333
206 193 185 184 185 175 168 162 167 163 161 160 153 145 146 154 171 179 179 175 173 169 161 160 149 150 150 145 141 132 125 123 129 117 90 76 42 28 3 358 355 330 303
203 196 185 178 176 171 170 167 165 167 168 165 169 163 162 166 173 175 180 178 166 157 153 150 153 151 150 139 141 135 129 133 135 112 109 104 39 348 327 324 324 316 305
222 209 183 187 177 175 179 174 173 176 173 174 177 173 170 170 175 159 159 167 161 150 149 136 146 137 144 144 132 137 143 139 136 124 123 113 334 313 293 301 318 336 324
242 187 204 202 189 185 189 185 186 187 183 179 185 177 172 181 189 172 164 162 153 141 127 123 136 150 159 160 158 155 154 153 138 132 135 166 261 278 283 307 324 323 286
202 218 210 177 197 192 173 164 199 192 190 194 184 174 173 180 178 180 181 178 170 155 125 156 179 177 180 176 174 168 170 164 160 157 179 205 239 261 299 310 294 291 297
216 194 190 209 180 178 183 169 165 187 192 193 186 182 175 174 181 183 182 183 181 159 163 175 181 182 183 183 182 171 167 172 164 197 208 204 229 264 273 281 294 296 298
204 198 191 189 187 169 184 186 178 173 175 184 192 183 184 180 179 181 178 182 168 155 159 177 183 187 186 190 183 180 188 185 199 209 214 214 235 254 267 276 288 293 301
211 195 207 197 185 181 182 177 180 177 177 165 174 174 185 183 179 178 185 174 181 174 177 186 184 186 195 190 196 195 200 206 208 206 212 218 220 223 255 263 277 281 290
227 223 202 197 189 191 181 189 184 184 176 170 176 169 142 197 180 183 185 162 177 187 178 188 193 188 195 199 203 202 209 212 219 216 228 229 228 223 250 259 269 285 285
220 220 207 210 201 198 195 195 184 188 191 187 184 167 174 159 161 172 172 182 186 187 190 186 183 193 202 199 197 201 210 218 216 218 222 218 220 235 237 254 266 268 275
214 204 203 212 208 203 202 194 186 184 182 186 177 184 193 176 181 190 204 206 198 191 189 187 191 191 194 193 195 196 205 209 215 215 215 202 214 231 237 252 258 270 274
211 205 204 197 196 196 194 196 189 191 191 185 176 183 206 187 192 191 201 198 188 189 196 201 205 201 203 206 201 199 203 209 208 192 194 205 217 227 224 245 246 254 260
211 210 212 203 190 194 185 171 172 184 168 176 176 182 198 200 192 201 186 196 198 205 199 198 203 209 209 209 208 212 218 211 190 190 185 203 215 209 221 227 237 243 253
208 209 205 206 202 206 202 197 188 182 191 192 192 191 195 203 211 211 203 196 200 201 209 205 208 217 217 215 211 212 211 216 199 186 187 199 207 205 212 227 237 244 244
208 214 215 207 207 207 208 205 203 198 197 192 195 199 202 208 211 210 203 196 205 210 209 213 214 217 219 222 222 219 211 212 211 197 191 194 205 213 212 226 231 237 245